Weather in Sovkhoz Pobeda

Russia / Kaluga Oblast     55°10′14″N   36°45′52″E
temp.,
°C
wind,
m/s
gust,
m/s
humid.,
%
clouds,
%
prec.,
mm/h
press.,
hPa
HPBL,
m
27 january, thu
thu2700:00−8nne1189100 0.1 101710
03:00−9sw1295100 0.1 101768
06:00−13sw2299100 0.1 101854
09:00−18ssw24100100 0.1 101759
12:00−11ssw3795100 0.0 1016232
15:00−9s399498 0.0 1014389
18:00−14sse389977 0.0 1014126
21:00−14s4119764 0.0 1012228
28 january, fri
fri2800:00−12s4139496 0.0 1010331
03:00−11sse4129599 0.1 1009363
06:00−11sse41295100 0.1 1006328
09:00−9sse51495100 0.5 1005418
12:00−6sse51295100 0.9 1004483
15:00−5sse41095100 1.4 1002487
18:00−5sse41096100 0.5 1002408
21:00−5sse3996100 1.3 1002332
29 january, sat
sat2900:00−5sse3697100 0.4 1002198
03:00−4sse2698100 0.8 1002162
06:00−5s2498100 0.9 1002101
09:00−4ssw2598100 1.0 1003173
12:00−2sw2597100 0.3 1003257
15:000w2597100 1.6 1003423
18:00−5nw389682 0.2 1005220
21:00−5wnw379585 0.3 1006301
30 january, sun
sun3000:00−13w259991 0.0 100660
03:00−17ssw11100100 0.1 100514
06:00−11s31098100 0.1 1000231
09:00−7s51590100 0.1 996614
12:00−5s71595100 1.6 991933
15:00−4s61395100 3.5 988823
18:00−4s51296100 0.8 986643
21:00−2s41198100 2.4 985582
31 january, mon
mon3100:00−2s399796 0.7 985317
03:00−2sse3895100 1.4 985419
06:00−4ese3897100 0.1 985197
09:00−3e3997100 1.3 985485
12:00−1e3696100 1.3 985443
15:00−1n2397100 2.2 985298
18:00−6nw369744 0.4 98799
21:00−4wnw4109569 0.5 990309